Latest Weather Observations for Sydney - Observatory Hill

IDN60801

Issued at 3:33 pm EST Monday 31 August 2026 (issued every 10 minutes, with the page automatically refreshed every 10 minutes)

About weather observations | Map of weather stations | Latest weather observations for NSW | Other Formats
Station Details ID: 066214 Name: SYDNEY (OBSERVATORY HILL) Lat: -33.86 Lon: 151.20 Height: 43.37 m
Data from the previous 72 hours. | See also: Recent months at Sydney - Observatory Hill

* Apparent temperature (App Temp) for Sydney - Observatory Hill is calculated using temperature observations collected at Sydney - Observatory Hill and wind observations collected at Fort Denison, as wind observations are not currently provided for Sydney - Observatory Hill.

Date/Time
EST
Temp
°C
App
Temp
°C
Dew
Point
°C
Rel
Hum
%
Delta-T
°C
Wind Press
QNH
hPa
Press
MSL
hPa
Rain since
9am
mm
Dir  Spd
km/h
Gust
km/h
Spd
kts
Gust
kts
31/03:30pm 20.7 18.4 11.6 56 5.0 ENE 15 - 8 - 1028.7 1028.7 0.0
31/03:00pm 20.4 17.4 10.8 54 5.2 ENE 17 - 9 - 1028.8 1028.8 0.0
31/02:30pm 20.6 18.0 12.1 58 4.8 ENE 17 - 9 - 1029.0 1029.0 0.0
31/02:00pm 20.6 18.8 13.3 63 4.2 E 15 - 8 - 1029.2 1029.2 0.0
31/01:30pm 20.5 18.3 13.2 63 4.2 E 17 - 9 - 1029.4 1029.4 0.0
31/01:00pm 20.0 17.3 13.0 64 3.9 E 19 - 10 - 1029.7 1029.7 0.0
31/12:30pm 19.6 17.3 13.1 66 3.7 E 17 - 9 - 1030.1 1030.2 0.0
31/12:00pm 20.1 17.8 13.1 64 4.0 E 17 - 9 - 1030.5 1030.6 0.0
31/11:30am 19.6 18.0 12.8 65 3.8 E 13 - 7 - 1031.0 1031.1 0.0
31/11:00am 20.1 19.8 11.6 58 4.7 ESE 4 - 2 - 1031.4 1031.5 0.0
31/10:30am 18.7 17.8 10.8 60 4.3 WNW 6 - 3 - 1031.5 1031.6 0.0
31/10:00am 17.5 16.0 10.6 64 3.7 W 9 - 5 - 1031.6 1031.7 0.0
31/09:30am 15.7 13.6 9.8 68 3.1 W 11 - 6 - 1031.6 1031.7 0.0
31/09:00am 14.8 13.1 9.8 72 2.6 WNW 9 - 5 - 1031.5 1031.6 0.0
31/08:30am 12.6 10.5 9.6 82 1.5 WNW 11 - 6 - 1031.7 1031.8 0.0
31/08:00am 11.3 8.2 9.0 86 1.1 WNW 15 - 8 - 1031.5 1031.6 0.0
31/07:30am 10.7 7.6 9.0 89 0.8 W 15 - 8 - 1031.2 1031.3 0.0
31/07:00am 10.4 7.6 8.7 89 0.8 WNW 13 - 7 - 1031.0 1031.1 0.0
31/06:30am 10.4 7.4 9.2 92 0.6 WNW 15 - 8 - 1030.7 1030.8 0.0
31/06:00am 10.5 7.8 9.1 91 0.7 W 13 - 7 - 1030.4 1030.5 0.0
31/05:30am 10.8 7.4 9.2 90 0.8 W 17 - 9 - 1030.3 1030.4 0.0
31/05:00am 10.7 7.4 9.6 93 0.5 W 17 - 9 - 1030.0 1030.1 0.0
31/04:30am 10.7 6.8 9.6 93 0.6 W 20 - 11 - 1029.9 1030.0 0.0
31/04:00am 11.2 8.1 10.3 94 0.5 W 17 - 9 - 1030.1 1030.2 0.0
31/03:30am 11.5 9.3 10.7 95 0.4 W 13 - 7 - 1030.2 1030.3 0.0
31/03:00am 11.6 10.1 10.7 94 0.5 WNW 9 - 5 - 1030.2 1030.3 0.0
31/02:30am 11.5 10.0 10.4 93 0.6 W 9 - 5 - 1030.5 1030.6 0.0
31/02:00am 11.9 10.1 10.8 93 0.6 WNW 11 - 6 - 1030.7 1030.8 0.0
31/01:30am 12.2 10.9 11.3 94 0.5 WNW 9 - 5 - 1030.7 1030.8 0.0
31/01:00am 12.5 10.9 11.4 93 0.6 WNW 11 - 6 - 1030.8 1030.9 0.0
31/12:30am 13.0 12.5 11.9 93 0.6 NNW 6 - 3 - 1031.0 1031.1 0.0
31/12:00am 13.1 12.8 11.5 90 0.8 N 4 - 2 - 1030.8 1030.9 0.0
 
Date/Time
EST
Temp
°C
App
Temp
°C
Dew
Point
°C
Rel
Hum
%
Delta-T
°C
Wind Press
QNH
hPa
Press
MSL
hPa
Rain since
9am
mm
Dir  Spd
km/h
Gust
km/h
Spd
kts
Gust
kts
30/11:30pm 13.3 13.5 12.0 92 0.7 NE 2 - 1 - 1030.9 1031.0 0.0
30/11:00pm 13.3 13.5 11.9 91 0.7 N 2 - 1 - 1030.9 1031.0 0.0
30/10:30pm 13.4 12.7 11.5 88 1.0 SSE 6 - 3 - 1031.0 1031.1 0.0
30/10:00pm 13.3 13.4 11.5 89 1.0 NW 2 - 1 - 1030.7 1030.8 0.0
30/09:30pm 13.8 13.6 11.8 88 1.1 NNW 4 - 2 - 1030.6 1030.7 0.0
30/09:00pm 14.2 14.3 11.4 83 1.5 ENE 2 - 1 - 1030.5 1030.6 0.0
30/08:30pm 14.4 14.5 11.4 82 1.6 NW 2 - 1 - 1030.3 1030.4 0.0
30/08:00pm 14.6 14.6 11.2 80 1.8 NE 2 - 1 - 1030.1 1030.2 0.0
30/07:30pm 15.2 15.3 11.4 78 2.0 ENE 2 - 1 - 1029.9 1030.0 0.0
30/07:00pm 15.4 14.7 11.4 77 2.1 E 6 - 3 - 1029.8 1029.9 0.0
30/06:30pm 15.7 15.0 11.3 75 2.4 E 6 - 3 - 1029.4 1029.4 0.0
30/06:00pm 16.1 14.8 11.3 73 2.6 E 9 - 5 - 1029.2 1029.2 0.0
30/05:30pm 16.4 14.9 10.7 69 3.0 E 9 - 5 - 1029.1 1029.1 0.0
30/05:00pm 16.6 14.9 11.1 70 2.9 E 11 - 6 - 1028.9 1028.9 0.0
30/04:30pm 17.3 14.9 10.2 63 3.8 E 13 - 7 - 1028.9 1028.9 0.0
30/04:00pm 18.0 15.3 10.4 61 4.0 ENE 15 - 8 - 1028.9 1028.9 0.0
30/03:30pm 19.2 16.9 10.5 57 4.7 E 13 - 7 - 1029.1 1029.1 0.0
30/03:00pm 19.4 17.0 11.4 60 4.4 E 15 - 8 - 1029.2 1029.2 0.0
30/02:30pm 19.6 17.4 12.1 62 4.2 E 15 - 8 - 1029.2 1029.2 0.0
30/02:00pm 19.4 17.5 11.7 61 4.2 E 13 - 7 - 1029.3 1029.3 0.0
30/01:30pm 19.6 17.1 12.4 63 4.0 E 17 - 9 - 1029.4 1029.4 0.0
30/01:00pm 19.1 16.7 12.6 66 3.6 E 17 - 9 - 1029.7 1029.7 0.0
30/12:30pm 19.4 16.7 11.7 61 4.3 E 17 - 9 - 1029.9 1030.0 0.0
30/12:00pm 20.3 19.7 10.4 53 5.3 NE 4 - 2 - 1030.3 1030.4 0.0
30/11:30am 19.4 18.9 10.7 57 4.7 NW 4 - 2 - 1030.7 1030.8 0.0
30/11:00am 18.4 17.0 10.8 61 4.1 WNW 9 - 5 - 1030.8 1030.9 0.0
30/10:30am 17.6 16.1 10.5 63 3.8 WNW 9 - 5 - 1031.0 1031.1 0.0
30/10:00am 16.5 15.4 10.8 69 3.0 W 7 - 4 - 1031.1 1031.2 0.0
30/09:30am 15.4 13.8 11.4 77 2.2 W 11 - 6 - 1031.2 1031.3 0.0
30/09:00am 14.1 11.9 10.9 81 1.7 W 13 - 7 - 1031.4 1031.5 0.0
30/08:30am 12.6 10.5 11.0 90 0.8 WNW 13 - 7 - 1031.3 1031.4 0.0
30/08:00am 11.1 9.4 9.9 92 0.6 WNW 9 - 5 - 1031.0 1031.1 0.0
30/07:30am 10.5 8.3 9.4 93 0.6 W 11 - 6 - 1030.8 1030.9 0.0
30/07:00am 10.1 7.8 9.0 93 0.5 WNW 11 - 6 - 1030.6 1030.7 0.0
30/06:30am 10.0 7.7 8.9 93 0.5 W 11 - 6 - 1030.4 1030.5 0.0
30/06:00am 10.1 7.8 9.0 93 0.5 W 11 - 6 - 1030.3 1030.4 0.0
30/05:30am 10.3 7.7 9.4 94 0.4 W 13 - 7 - 1030.2 1030.3 0.0
30/05:00am 10.4 8.2 9.3 93 0.5 W 11 - 6 - 1029.9 1030.0 0.0
30/04:30am 10.6 8.0 9.5 93 0.6 W 13 - 7 - 1029.8 1029.9 0.0
30/04:00am 10.9 8.0 9.8 93 0.6 W 15 - 8 - 1029.7 1029.7 0.0
30/03:30am 10.8 8.3 9.7 93 0.6 WNW 13 - 7 - 1029.6 1029.6 0.0
30/03:00am 11.1 8.7 9.9 92 0.6 WNW 13 - 7 - 1029.7 1029.7 0.0
30/02:30am 11.2 9.5 10.0 92 0.6 WNW 9 - 5 - 1030.1 1030.2 0.0
30/02:00am 11.4 9.4 10.1 92 0.7 WNW 11 - 6 - 1030.3 1030.4 0.0
30/01:30am 11.5 9.5 10.2 92 0.7 WNW 11 - 6 - 1030.6 1030.7 0.0
30/01:00am 11.8 10.9 10.5 92 0.7 NW 6 - 3 - 1030.6 1030.7 0.0
30/12:30am 11.9 10.8 10.5 91 0.7 WNW 7 - 4 - 1030.7 1030.8 0.0
30/12:00am 12.1 11.2 10.5 90 0.8 WNW 6 - 3 - 1030.8 1030.9 0.0
 
Date/Time
EST
Temp
°C
App
Temp
°C
Dew
Point
°C
Rel
Hum
%
Delta-T
°C
Wind Press
QNH
hPa
Press
MSL
hPa
Rain since
9am
mm
Dir  Spd
km/h
Gust
km/h
Spd
kts
Gust
kts
29/11:30pm 12.1 9.8 10.5 90 0.8 WNW 13 - 7 - 1030.9 1031.0 0.0
29/11:00pm 12.0 9.6 10.2 89 0.9 WNW 13 - 7 - 1030.8 1030.9 0.0
29/10:30pm 12.4 10.4 10.3 87 1.1 WNW 11 - 6 - 1030.9 1031.0 0.0
29/10:00pm 12.5 10.1 10.2 86 1.2 W 13 - 7 - 1031.0 1031.1 0.0
29/09:30pm 13.1 10.9 10.8 86 1.2 WNW 13 - 7 - 1030.8 1030.9 0.0
29/09:00pm 13.7 13.3 11.2 85 1.3 WNW 4 - 2 - 1030.7 1030.8 0.0
29/08:30pm 14.0 13.1 9.2 73 2.4 NW 4 - 2 - 1030.6 1030.7 0.0
29/08:00pm 14.3 13.4 9.3 72 2.5 SE 4 - 2 - 1030.5 1030.6 0.0
29/07:30pm 14.6 13.4 9.4 71 2.7 SE 6 - 3 - 1030.3 1030.4 0.0
29/07:00pm 14.5 13.1 9.5 72 2.6 SE 7 - 4 - 1030.2 1030.3 0.0
29/06:30pm 14.6 12.5 9.6 72 2.6 ESE 11 - 6 - 1030.1 1030.2 0.0
29/06:00pm 14.9 12.4 9.7 71 2.7 ESE 13 - 7 - 1029.8 1029.9 0.0
29/05:30pm 15.2 11.9 9.6 69 2.9 ESE 17 - 9 - 1029.8 1029.9 0.0
29/05:00pm 15.6 12.4 9.9 69 3.0 ESE 17 - 9 - 1029.5 1029.5 0.0
29/04:30pm 16.2 13.1 10.3 68 3.1 SE 17 - 9 - 1029.3 1029.3 0.0
29/04:00pm 17.1 14.1 10.7 66 3.4 ESE 17 - 9 - 1029.0 1029.0 0.0
29/03:30pm 19.0 16.3 11.8 63 4.0 ESE 17 - 9 - 1028.9 1028.9 0.0
29/03:00pm 19.1 16.3 11.4 61 4.2 ESE 17 - 9 - 1028.9 1028.9 0.0
29/02:30pm 19.3 17.0 11.8 62 4.2 ESE 15 - 8 - 1029.2 1029.2 0.0
29/02:00pm 18.4 15.2 11.2 63 3.9 ESE 19 - 10 - 1029.5 1029.5 0.0
29/01:30pm 18.9 16.8 12.4 66 3.6 SE 15 - 8 - 1029.7 1029.7 0.0
29/01:00pm 18.3 14.5 9.1 55 4.8 ESE 19 - 10 - 1030.1 1030.2 0.0
29/12:30pm 19.5 17.1 10.2 55 5.0 ESE 13 - 7 - 1030.5 1030.6 0.0
29/12:00pm 19.4 17.8 11.7 61 4.2 SSE 11 - 6 - 1030.8 1030.9 0.0
29/11:30am 18.8 17.0 9.3 54 5.0 SSE 9 - 5 - 1031.1 1031.2 0.0
29/11:00am 19.5 19.1 9.7 53 5.2 NE 2 - 1 - 1031.3 1031.4 0.0
29/10:30am 18.6 17.3 9.9 57 4.6 NW 7 - 4 - 1031.3 1031.4 0.0
29/10:00am 16.8 14.9 9.2 61 3.9 WNW 9 - 5 - 1031.5 1031.6 0.0
29/09:30am 16.8 15.6 10.4 66 3.4 NW 7 - 4 - 1031.3 1031.4 0.0
29/09:00am 15.2 12.5 9.1 67 3.1 WNW 13 - 7 - 1031.3 1031.4 0.0
29/08:30am 13.5 10.3 9.9 79 1.9 WNW 17 - 9 - 1030.9 1031.0 0.0
29/08:00am 12.4 9.1 9.6 83 1.4 W 17 - 9 - 1030.7 1030.8 0.0
29/07:30am 11.7 8.1 9.8 88 1.0 W 19 - 10 - 1030.4 1030.5 0.0
29/07:00am 11.4 8.2 10.0 91 0.7 WNW 17 - 9 - 1029.9 1030.0 0.0
29/06:30am 11.3 8.5 9.9 91 0.7 WNW 15 - 8 - 1029.6 1029.6 0.0
29/06:00am 11.3 8.9 10.0 92 0.7 WNW 13 - 7 - 1029.3 1029.3 0.0
29/05:30am 11.3 8.9 10.0 92 0.7 W 13 - 7 - 1029.1 1029.1 0.0
29/05:00am 11.2 8.8 10.0 92 0.6 WNW 13 - 7 - 1028.7 1028.7 0.0
29/04:30am 11.5 9.1 10.2 92 0.7 WNW 13 - 7 - 1028.5 1028.5 0.0
29/04:00am 11.8 8.8 10.5 92 0.7 WNW 17 - 9 - 1028.5 1028.5 0.0
29/03:30am 12.0 9.0 10.6 91 0.7 WNW 17 - 9 - 1028.6 1028.6 0.0
29/03:00am 12.2 9.6 10.6 90 0.8 WNW 15 - 8 - 1028.5 1028.5 0.0
29/02:30am 12.4 10.1 10.6 89 0.9 W 13 - 7 - 1028.6 1028.6 0.0
29/02:00am 12.6 10.8 10.7 88 1.0 WNW 11 - 6 - 1028.8 1028.8 0.0
29/01:30am 12.9 10.8 11.0 88 1.0 WNW 13 - 7 - 1029.0 1029.0 0.0
29/01:00am 12.9 10.4 11.0 88 1.0 W 15 - 8 - 1029.2 1029.2 0.0
29/12:30am 13.2 11.1 11.1 87 1.1 WNW 13 - 7 - 1029.1 1029.1 0.0
29/12:00am 13.6 11.2 11.3 86 1.2 WNW 15 - 8 - 1029.0 1029.0 0.0
 
Date/Time
EST
Temp
°C
App
Temp
°C
Dew
Point
°C
Rel
Hum
%
Delta-T
°C
Wind Press
QNH
hPa
Press
MSL
hPa
Rain since
9am
mm
Dir  Spd
km/h
Gust
km/h
Spd
kts
Gust
kts
28/11:30pm 14.0 11.6 11.5 85 1.3 WNW 15 - 8 - 1029.0 1029.0 0.0
28/11:00pm 14.4 13.3 12.1 86 1.2 W 9 - 5 - 1028.7 1028.7 0.0
28/10:30pm 14.6 14.4 11.7 83 1.6 SSW 4 - 2 - 1028.5 1028.5 0.0
28/10:00pm 14.9 14.4 12.0 83 1.6 SSE 6 - 3 - 1028.7 1028.7 0.0
28/09:30pm 14.9 14.7 11.7 81 1.7 SSW 4 - 2 - 1028.9 1028.9 0.0
28/09:00pm 14.8 14.5 11.4 80 1.8 SSW 4 - 2 - 1028.7 1028.7 0.0
28/08:30pm 14.9 14.1 10.9 77 2.1 SE 6 - 3 - 1028.5 1028.5 0.0
28/08:00pm 15.2 13.8 11.0 76 2.2 SE 9 - 5 - 1028.0 1028.0 0.0
28/07:30pm 15.2 13.0 10.8 75 2.3 SSE 13 - 7 - 1028.0 1028.0 0.0
28/07:00pm 15.6 12.8 11.2 75 2.3 SSE 17 - 9 - 1027.7 1027.7 0.0
28/06:30pm 15.8 13.7 11.2 74 2.5 SSE 13 - 7 - 1027.4 1027.4 0.0
28/06:00pm 16.0 13.8 10.7 71 2.8 SSE 13 - 7 - 1027.1 1027.1 0.0
28/05:30pm 16.4 13.2 11.3 72 2.8 SSE 19 - 10 - 1026.7 1026.7 0.0
28/05:00pm 16.6 13.5 11.7 73 2.7 SSE 19 - 10 - 1026.4 1026.4 0.0
28/04:30pm 17.0 13.6 11.3 69 3.1 SSE 20 - 11 - 1026.0 1026.0 0.0
28/04:00pm 17.6 14.0 10.7 64 3.7 SSE 20 - 11 - 1025.9 1025.9 0.0

Other formats

Comma delimited format used in spreadsheet applications
http://www.bom.gov.au/fwo/IDN60801/IDN60801.94768.axf

JavaScript Object Notation format (JSON) in row-major order
http://www.bom.gov.au/fwo/IDN60801/IDN60801.94768.json

Data quality

Most of these data are generated automatically and are frequently updated. Quality checks on data are not normally performed. It is possible for incorrect values to appear. Refer to information at About Latest Weather Observations and please check the disclaimer before using these data.